| time (UTC) | temp F | wind direction | speed MPH | gust MPH | rain 1hr in | rain 24hr in | rain mn in | humidity % | barometer mb |
| 20260906080035 | 88 | 28 | 3.0 | 5.0 | 0.00 | 0.00 | 0.00 | 40 | 1017.5 |
| 20260906075017 | 88 | 42 | 1.0 | 5.0 | 0.00 | 0.00 | 0.00 | 39 | 1017.4 |
| 20260906074016 | 87 | 45 | 2.0 | 4.0 | 0.00 | 0.00 | 0.00 | 41 | 1017.4 |
| 20260906073017 | 87 | 22 | 1.0 | 3.0 | 0.00 | 0.00 | 0.00 | 40 | 1017.3 |
| 20260906072036 | 86 | 32 | 2.0 | 4.0 | 0.00 | 0.00 | 0.00 | 40 | 1017.4 |
| 20260906071015 | 84 | 354 | 1.0 | 3.0 | 0.00 | 0.00 | 0.00 | 43 | 1017.2 |
| 20260906070035 | 85 | 355 | 1.0 | 3.0 | 0.00 | 0.00 | 0.00 | 40 | 1017.0 |
| 20260906065015 | 84 | 332 | 0.0 | 3.0 | 0.00 | 0.00 | 0.00 | 43 | 1017.0 |
| 20260906064036 | 82 | 268 | 0.0 | 2.0 | 0.00 | 0.00 | 0.00 | 45 | 1017.0 |
| 20260906063035 | 81 | 268 | 1.0 | 3.0 | 0.00 | 0.00 | 0.00 | 46 | 1016.9 |
| 20260906062015 | 79 | 235 | 0.0 | 2.0 | 0.00 | 0.00 | 0.00 | 47 | 1016.7 |
| 20260906061017 | 78 | 235 | 1.0 | 3.0 | 0.00 | 0.00 | 0.00 | 48 | 1016.6 |
| 20260906060015 | 77 | 236 | 2.0 | 4.0 | 0.00 | 0.00 | 0.00 | 49 | 1016.6 |
| 20260906055016 | 76 | 213 | 3.0 | 5.0 | 0.00 | 0.00 | 0.00 | 50 | 1016.5 |
| 20260906054017 | 75 | 360 | 3.0 | 5.0 | 0.00 | 0.00 | 0.00 | 53 | 1016.5 |
| 20260906053015 | 74 | 356 | 3.0 | 5.0 | 0.00 | 0.00 | 0.00 | 55 | 1016.5 |
| 20260906052017 | 72 | 0 | 3.0 | 10.0 | 0.00 | 0.00 | 0.00 | 57 | 1016.4 |
| 20260906051036 | 71 | 342 | 5.0 | 10.0 | 0.00 | 0.00 | 0.00 | 59 | 1016.4 |
| 20260906050015 | 70 | 219 | 4.0 | 6.0 | 0.00 | 0.00 | 0.00 | 60 | 1016.3 |
| 20260906045037 | 70 | 208 | 4.0 | 8.0 | 0.00 | 0.00 | 0.00 | 60 | 1016.3 |
| 20260906044015 | 70 | 220 | 5.0 | 8.0 | 0.00 | 0.00 | 0.00 | 60 | 1016.2 |
| 20260906043016 | 71 | 214 | 6.0 | 10.0 | 0.00 | 0.00 | 0.00 | 57 | 1016.1 |
| 20260906042035 | 71 | 207 | 6.0 | 10.0 | 0.00 | 0.00 | 0.00 | 58 | 1016.1 |
| 20260906041015 | 70 | 294 | 5.0 | 8.0 | 0.00 | 0.00 | 0.00 | 59 | 1016.0 |
| 20260906040035 | 70 | 203 | 5.0 | 12.0 | 0.00 | 0.00 | 0.00 | 58 | 1015.9 |
| 20260906035015 | 71 | 256 | 6.0 | 11.0 | 0.00 | 0.00 | 0.00 | 58 | 1015.9 |
| 20260906034017 | 71 | 196 | 5.0 | 8.0 | 0.00 | 0.00 | 0.00 | 58 | 1015.8 |
| 20260906033017 | 71 | 204 | 5.0 | 10.0 | 0.00 | 0.00 | 0.00 | 58 | 1015.8 |
| 20260906032018 | 71 | 211 | 7.0 | 10.0 | 0.00 | 0.00 | 0.00 | 58 | 1015.8 |
| 20260906031015 | 71 | 210 | 6.0 | 11.0 | 0.00 | 0.00 | 0.00 | 58 | 1015.8 |
| 20260906030147 | 71 | 203 | 7.0 | 11.0 | 0.00 | 0.00 | 0.00 | 59 | 1015.7 |
| 20260906025017 | 70 | 242 | 6.0 | 11.0 | 0.00 | 0.00 | 0.00 | 59 | 1015.6 |
| 20260906024016 | 70 | 230 | 5.0 | 10.0 | 0.00 | 0.00 | 0.00 | 59 | 1015.5 |
| 20260906023015 | 71 | 201 | 4.0 | 7.0 | 0.00 | 0.00 | 0.00 | 58 | 1015.5 |
| 20260906022017 | 71 | 192 | 5.0 | 9.0 | 0.00 | 0.00 | 0.00 | 58 | 1015.6 |
| 20260906021037 | 71 | 208 | 4.0 | 8.0 | 0.00 | 0.00 | 0.00 | 59 | 1015.6 |
| 20260906020016 | 70 | 177 | 3.0 | 7.0 | 0.00 | 0.00 | 0.00 | 60 | 1015.3 |
| 20260906015037 | 70 | 192 | 4.0 | 9.0 | 0.00 | 0.00 | 0.00 | 61 | 1015.5 |
| 20260906014017 | 70 | 220 | 7.0 | 13.0 | 0.00 | 0.00 | 0.00 | 60 | 1015.5 |
| 20260906013015 | 71 | 232 | 5.0 | 8.0 | 0.00 | 0.00 | 0.00 | 58 | 1015.3 |
| 20260906012015 | 72 | 202 | 6.0 | 9.0 | 0.00 | 0.00 | 0.00 | 56 | 1015.3 |
| 20260906011015 | 72 | 215 | 5.0 | 9.0 | 0.00 | 0.00 | 0.00 | 57 | 1015.4 |
| 20260906010037 | 72 | 217 | 5.0 | 8.0 | 0.00 | 0.00 | 0.00 | 57 | 1015.5 |
| 20260906005017 | 72 | 239 | 4.0 | 9.0 | 0.00 | 0.00 | 0.00 | 57 | 1015.7 |
| 20260906004015 | 73 | 225 | 5.0 | 9.0 | 0.00 | 0.00 | 0.00 | 55 | 1015.6 |
| 20260906003017 | 73 | 199 | 6.0 | 10.0 | 0.00 | 0.00 | 0.00 | 54 | 1015.6 |
| 20260906002015 | 73 | 197 | 7.0 | 10.0 | 0.00 | 0.00 | 0.00 | 54 | 1015.6 |
| 20260906001015 | 74 | 184 | 5.0 | 10.0 | 0.00 | 0.00 | 0.00 | 53 | 1015.6 |
| 20260906000035 | 73 | 188 | 5.0 | 11.0 | 0.00 | 0.00 | 0.00 | 54 | 1015.8 |
| 20260905235015 | 73 | 181 | 6.0 | 16.0 | 0.00 | 0.00 | 0.00 | 55 | 1015.8 |
| 20260905234017 | 73 | 187 | 6.0 | 11.0 | 0.00 | 0.00 | 0.00 | 54 | 1015.9 |
| 20260905233015 | 73 | 191 | 6.0 | 10.0 | 0.00 | 0.00 | 0.00 | 55 | 1016.0 |
| 20260905232016 | 73 | 187 | 6.0 | 11.0 | 0.00 | 0.00 | 0.00 | 54 | 1016.1 |
| 20260905231017 | 74 | 205 | 5.0 | 9.0 | 0.00 | 0.00 | 0.00 | 53 | 1016.1 |
| 20260905230015 | 74 | 191 | 5.0 | 11.0 | 0.00 | 0.00 | 0.00 | 52 | 1016.2 |
| 20260905225015 | 74 | 185 | 5.0 | 12.0 | 0.00 | 0.00 | 0.00 | 52 | 1016.2 |
| 20260905224017 | 75 | 191 | 5.0 | 9.0 | 0.00 | 0.00 | 0.00 | 52 | 1016.2 |
| 20260905223015 | 75 | 184 | 5.0 | 10.0 | 0.00 | 0.00 | 0.00 | 51 | 1016.3 |
| 20260905222037 | 75 | 184 | 5.0 | 11.0 | 0.00 | 0.00 | 0.00 | 51 | 1016.3 |
| 20260905221015 | 75 | 177 | 4.0 | 12.0 | 0.00 | 0.00 | 0.00 | 51 | 1016.4 |
| 20260905220015 | 74 | 175 | 4.0 | 9.0 | 0.00 | 0.00 | 0.00 | 52 | 1016.3 |
| 20260905215057 | 74 | 177 | 5.0 | 11.0 | 0.00 | 0.00 | 0.00 | 54 | 1016.3 |
| 20260905214015 | 73 | 203 | 5.0 | 9.0 | 0.00 | 0.00 | 0.00 | 55 | 1016.4 |
| 20260905213015 | 73 | 190 | 5.0 | 10.0 | 0.00 | 0.00 | 0.00 | 54 | 1016.5 |
| 20260905212017 | 74 | 194 | 5.0 | 9.0 | 0.00 | 0.00 | 0.00 | 53 | 1016.5 |
| 20260905211015 | 75 | 198 | 4.0 | 9.0 | 0.00 | 0.00 | 0.00 | 52 | 1016.6 |
| 20260905210037 | 76 | 198 | 4.0 | 6.0 | 0.00 | 0.00 | 0.00 | 51 | 1016.6 |
| 20260905205018 | 76 | 181 | 3.0 | 6.0 | 0.00 | 0.00 | 0.00 | 51 | 1016.6 |
| 20260905204018 | 75 | 183 | 4.0 | 8.0 | 0.00 | 0.00 | 0.00 | 51 | 1016.5 |
| 20260905203016 | 75 | 182 | 5.0 | 10.0 | 0.00 | 0.00 | 0.00 | 51 | 1016.4 |
| 20260905202018 | 77 | 209 | 5.0 | 8.0 | 0.00 | 0.00 | 0.00 | 49 | 1016.4 |
| 20260905201016 | 77 | 191 | 4.0 | 7.0 | 0.00 | 0.00 | 0.00 | 49 | 1016.4 |
| 20260905200016 | 77 | 188 | 4.0 | 7.0 | 0.00 | 0.00 | 0.00 | 49 | 1016.5 |
| 20260905195016 | 78 | 189 | 4.0 | 9.0 | 0.00 | 0.00 | 0.00 | 48 | 1016.6 |
| 20260905194018 | 78 | 186 | 4.0 | 7.0 | 0.00 | 0.00 | 0.00 | 48 | 1016.5 |
| 20260905193016 | 79 | 173 | 3.0 | 6.0 | 0.00 | 0.00 | 0.00 | 47 | 1016.6 |
| 20260905192018 | 80 | 190 | 3.0 | 5.0 | 0.00 | 0.00 | 0.00 | 46 | 1016.6 |
| 20260905191036 | 80 | 188 | 1.0 | 5.0 | 0.00 | 0.00 | 0.00 | 46 | 1016.6 |
| 20260905190016 | 80 | 0 | 1.0 | 4.0 | 0.00 | 0.00 | 0.00 | 46 | 1016.6 |
| 20260905185016 | 81 | 0 | 3.0 | 5.0 | 0.00 | 0.00 | 0.00 | 45 | 1016.4 |
| 20260905184016 | 81 | 0 | 1.0 | 5.0 | 0.00 | 0.00 | 0.00 | 45 | 1016.3 |
| 20260905183016 | 81 | 0 | 2.0 | 8.0 | 0.00 | 0.00 | 0.00 | 44 | 1016.2 |
| 20260905182036 | 82 | 0 | 3.0 | 9.0 | 0.00 | 0.00 | 0.00 | 44 | 1016.1 |
| 20260905181016 | 82 | 0 | 3.0 | 6.0 | 0.00 | 0.00 | 0.00 | 45 | 1016.0 |
| 20260905180016 | 82 | 0 | 3.0 | 8.0 | 0.00 | 0.00 | 0.00 | 45 | 1015.9 |
| 20260905175016 | 83 | 0 | 4.0 | 6.0 | 0.00 | 0.00 | 0.00 | 45 | 1015.8 |
| 20260905174036 | 85 | 0 | 1.0 | 4.0 | 0.00 | 0.00 | 0.00 | 45 | 1015.6 |
| 20260905173016 | 85 | 0 | 0.0 | 5.0 | 0.00 | 0.00 | 0.00 | 47 | 1015.5 |
| 20260905172016 | 85 | 0 | 2.0 | 5.0 | 0.00 | 0.00 | 0.00 | 47 | 1015.4 |
| 20260905171017 | 85 | 0 | 2.0 | 3.0 | 0.00 | 0.00 | 0.00 | 48 | 1015.3 |
| 20260905170017 | 85 | 0 | 3.0 | 6.0 | 0.00 | 0.00 | 0.00 | 48 | 1015.2 |
| 20260905165018 | 86 | 0 | 4.0 | 10.0 | 0.00 | 0.00 | 0.00 | 48 | 1015.2 |
| 20260905164016 | 87 | 29 | 4.0 | 8.0 | 0.00 | 0.00 | 0.00 | 46 | 1015.2 |
| 20260905163016 | 88 | 14 | 3.0 | 7.0 | 0.00 | 0.00 | 0.00 | 45 | 1015.1 |
| 20260905162016 | 88 | 29 | 3.0 | 9.0 | 0.00 | 0.00 | 0.00 | 41 | 1015.2 |
| 20260905161016 | 89 | 34 | 4.0 | 11.0 | 0.00 | 0.00 | 0.00 | 41 | 1015.2 |
| 20260905160016 | 89 | 17 | 3.0 | 8.0 | 0.00 | 0.00 | 0.00 | 41 | 1015.2 |
| 20260905155016 | 89 | 34 | 4.0 | 10.0 | 0.00 | 0.00 | 0.00 | 42 | 1015.2 |
| 20260905154018 | 89 | 28 | 4.0 | 9.0 | 0.00 | 0.00 | 0.00 | 45 | 1015.2 |
| 20260905153017 | 89 | 27 | 5.0 | 13.0 | 0.00 | 0.00 | 0.00 | 43 | 1015.2 |
| 20260905152017 | 90 | 30 | 5.0 | 11.0 | 0.00 | 0.00 | 0.00 | 42 | 1015.3 |
| 20260905151016 | 90 | 34 | 6.0 | 12.0 | 0.00 | 0.00 | 0.00 | 42 | 1015.3 |
| 20260905150018 | 90 | 42 | 5.0 | 12.0 | 0.00 | 0.00 | 0.00 | 38 | 1015.3 |
| 20260905145017 | 90 | 41 | 6.0 | 13.0 | 0.00 | 0.00 | 0.00 | 38 | 1015.3 |
| 20260905144037 | 90 | 42 | 5.0 | 14.0 | 0.00 | 0.00 | 0.00 | 40 | 1015.3 |
| 20260905143016 | 90 | 36 | 6.0 | 13.0 | 0.00 | 0.00 | 0.00 | 40 | 1015.3 |
| 20260905142015 | 91 | 47 | 5.0 | 11.0 | 0.00 | 0.00 | 0.00 | 39 | 1015.4 |
| 20260905141016 | 91 | 31 | 7.0 | 15.0 | 0.00 | 0.00 | 0.00 | 36 | 1015.4 |
| 20260905140016 | 91 | 33 | 10.0 | 15.0 | 0.00 | 0.00 | 0.00 | 36 | 1015.4 |
| 20260905135016 | 91 | 48 | 6.0 | 12.0 | 0.00 | 0.00 | 0.00 | 36 | 1015.5 |
| 20260905134016 | 91 | 38 | 8.0 | 14.0 | 0.00 | 0.00 | 0.00 | 35 | 1015.5 |
| 20260905133016 | 91 | 31 | 8.0 | 13.0 | 0.00 | 0.00 | 0.00 | 35 | 1015.7 |
| 20260905132134 | 92 | 45 | 6.0 | 11.0 | 0.00 | 0.00 | 0.00 | 34 | 1015.7 |
| 20260905131016 | 91 | 58 | 8.0 | 14.0 | 0.00 | 0.00 | 0.00 | 34 | 1015.8 |
| 20260905130016 | 91 | 51 | 7.0 | 13.0 | 0.00 | 0.00 | 0.00 | 33 | 1015.9 |
| 20260905125036 | 91 | 42 | 7.0 | 12.0 | 0.00 | 0.00 | 0.00 | 32 | 1016.0 |
| 20260905124036 | 91 | 32 | 5.0 | 11.0 | 0.00 | 0.00 | 0.00 | 33 | 1016.2 |
| 20260905123016 | 92 | 71 | 6.0 | 13.0 | 0.00 | 0.00 | 0.00 | 33 | 1016.3 |
| 20260905122018 | 92 | 52 | 6.0 | 12.0 | 0.00 | 0.00 | 0.00 | 33 | 1016.4 |
| 20260905121017 | 92 | 45 | 5.0 | 11.0 | 0.00 | 0.00 | 0.00 | 33 | 1016.7 |
| 20260905120036 | 91 | 26 | 4.0 | 11.0 | 0.00 | 0.00 | 0.00 | 33 | 1016.9 |
| 20260905115016 | 91 | 52 | 8.0 | 13.0 | 0.00 | 0.00 | 0.00 | 32 | 1016.9 |
| 20260905114017 | 91 | 50 | 5.0 | 11.0 | 0.00 | 0.00 | 0.00 | 33 | 1016.9 |
| 20260905113018 | 91 | 77 | 8.0 | 13.0 | 0.00 | 0.00 | 0.00 | 33 | 1016.9 |
| 20260905112016 | 90 | 73 | 6.0 | 11.0 | 0.00 | 0.00 | 0.00 | 34 | 1017.0 |
| 20260905111016 | 91 | 70 | 4.0 | 11.0 | 0.00 | 0.00 | 0.00 | 34 | 1017.0 |
| 20260905110038 | 91 | 69 | 5.0 | 10.0 | 0.00 | 0.00 | 0.00 | 33 | 1017.1 |
| 20260905105038 | 91 | 39 | 2.0 | 5.0 | 0.00 | 0.00 | 0.00 | 34 | 1017.1 |
| 20260905104016 | 90 | 48 | 4.0 | 10.0 | 0.00 | 0.00 | 0.00 | 34 | 1017.3 |
| 20260905103037 | 90 | 52 | 4.0 | 9.0 | 0.00 | 0.00 | 0.00 | 34 | 1017.3 |
| 20260905102016 | 90 | 62 | 4.0 | 11.0 | 0.00 | 0.00 | 0.00 | 35 | 1017.4 |
| 20260905101015 | 89 | 59 | 2.0 | 5.0 | 0.00 | 0.00 | 0.00 | 37 | 1017.5 |
| 20260905100036 | 88 | 6 | 2.0 | 8.0 | 0.00 | 0.00 | 0.00 | 40 | 1017.6 |
| 20260905095017 | 88 | 330 | 3.0 | 5.0 | 0.00 | 0.00 | 0.00 | 40 | 1017.6 |
| 20260905094037 | 88 | 306 | 3.0 | 7.0 | 0.00 | 0.00 | 0.00 | 40 | 1017.6 |
| 20260905093016 | 89 | 348 | 3.0 | 5.0 | 0.00 | 0.00 | 0.00 | 40 | 1017.7 |
| 20260905092037 | 88 | 28 | 2.0 | 9.0 | 0.00 | 0.00 | 0.00 | 41 | 1017.7 |
| 20260905091016 | 87 | 9 | 2.0 | 8.0 | 0.00 | 0.00 | 0.00 | 42 | 1017.8 |
| 20260905090016 | 87 | 329 | 3.0 | 8.0 | 0.00 | 0.00 | 0.00 | 41 | 1017.8 |
| 20260905085016 | 87 | 38 | 2.0 | 5.0 | 0.00 | 0.00 | 0.00 | 41 | 1017.8 |
| 20260905084039 | 87 | 43 | 2.0 | 6.0 | 0.00 | 0.00 | 0.00 | 42 | 1017.8 |
| 20260905083015 | 86 | 355 | 1.0 | 4.0 | 0.00 | 0.00 | 0.00 | 42 | 1017.9 |
| 20260905082016 | 85 | 83 | 3.0 | 6.0 | 0.00 | 0.00 | 0.00 | 43 | 1017.9 |
| 20260905081016 | 84 | 286 | 2.0 | 4.0 | 0.00 | 0.00 | 0.00 | 44 | 1017.9 |